Stations météo

Publicité
Nantes, France (7222): Température de l'air & dewpoint: 25.10.2020 23:00:00 - 31.10.2020 23:00:00 (CET)Nantes, France (7222): Température de l'air 5cm: 25.10.2020 23:00:00 - 31.10.2020 23:00:00 (CET)Nantes, France (7222): Température de l'air -20cm & Température de l'air -100cm: 25.10.2020 23:00:00 - 31.10.2020 23:00:00 (CET)Nantes, France (7222): Vitesse du vent & gusts: 25.10.2020 23:00:00 - 31.10.2020 23:00:00 (CET)Nantes, France (7222): Direction du vent: 25.10.2020 23:00:00 - 31.10.2020 23:00:00 (CET)Nantes, France (7222): reduced air pressure: 25.10.2020 23:00:00 - 31.10.2020 23:00:00 (CET)Nantes, France (7222): visibility: 25.10.2020 23:00:00 - 31.10.2020 23:00:00 (CET)Nantes, France (7222): Ensoleillement: 25.10.2020 23:00:00 - 31.10.2020 23:00:00 (CET)Nantes, France (7222): Quantités de précipitations: 25.10.2020 23:00:00 - 31.10.2020 23:00:00 (CET)
Date & Time tt [°C] td [°C] tt 5cm [°C] tt -20cm [°C] tt -100cm [°C] ff [km/h] ff [knt] fx [km/h] fx [knt] dd ppp [hPa] vv [km] sd [min] rr [mm]
31.10.2020 23:00:00 14,4 13,4 13,0 14,1 14,8 14 8 24 13 SSW 1017,9 47 0 0,0
31.10.2020 22:00:00 13,4 12,8 12,8 14,1 14,8 7 4 14 8 S 1017,7 20 0 0,0
31.10.2020 21:00:00 13,3 12,4 12,8 14,1 14,8 11 6 18 10 SSW 1017,9 35 0 0,0
31.10.2020 20:00:00 13,4 12,6 12,7 14,1 14,8 9 5 16 9 SSW 1017,9 37 0 0,0
31.10.2020 19:00:00 13,2 12,3 12,7 14,0 14,8 13 7 31 17 W 1018,0 3,5 0 0,0
31.10.2020 18:00:00 14,3 13,3 13,9 14,0 14,8 15 8 27 15 SW 1017,9 44 0 0,0
31.10.2020 17:00:00 14,5 13,7 14,5 13,9 14,8 15 8 35 19 SW 1017,6 57 0 0,2
31.10.2020 16:00:00 14,7 13,9 14,7 13,7 14,7 22 12 49 27 W 1017,5 3,0 0 1,2
31.10.2020 15:00:00 17,1 14,6 15,7 13,8 14,8 24 13 54 29 SW 1016,7 7 0 0,2
31.10.2020 14:00:00 18,2 13,5 17,1 13,8 14,8 30 16 45 25 SSW 1016,7 42 0 0,0
31.10.2020 13:00:00 17,3 12,6 17,1 13,7 14,8 22 12 39 21 SSW 1017,8 41 0 0,0
31.10.2020 12:00:00 16,5 13,6 16,1 13,7 14,8 22 12 37 20 S 1017,9 28 2 0,0
31.10.2020 11:00:00 15,9 13,9 14,8 13,7 14,8 24 13 38 20 S 1018,0 16 43 0,0
31.10.2020 10:00:00 13,6 13,1 12,7 13,8 14,8 21 12 31 17 S 1018,7 9 24 0,0
31.10.2020 09:00:00 12,6 12,4 12,0 13,8 14,8 18 10 29 16 S 1018,9 7 19 0,0
31.10.2020 08:00:00 12,1 11,9 11,4 13,8 14,8 14 8 22 12 S 1019,2 2,3 0 0,0
31.10.2020 07:00:00 11,4 11,2 9,0 13,9 14,8 14 8 22 12 S 1019,5 0,4 0 0,0
31.10.2020 06:00:00 9,4 9,3 6,7 14,0 14,8 8 5 19 11 SSE 1019,7 4,6 0 0,0
31.10.2020 05:00:00 8,9 8,8 4,5 14,1 14,8 9 5 18 10 SSE 1020,2 1,6 0 0,0
31.10.2020 04:00:00 9,0 8,7 5,2 14,1 14,8 7 4 16 8 SSE 1020,8 0,6 0 0,0
31.10.2020 03:00:00 8,9 8,6 4,2 14,2 14,8 8 5 12 7 SE 1021,5 0,4 0 0,0
31.10.2020 02:00:00 10,2 10,0 5,8 14,3 14,8 8 4 11 6 SE 1021,9 5 0 0,0
31.10.2020 01:00:00 7,7 7,1 2,8 14,3 14,8 3 1 7 4 NW 1022,7 0,5 0 0,0
31.10.2020 00:00:00 8,9 8,4 2,9 14,4 14,8 5 3 11 6 SSE 1022,8 0,1 0 0,0
30.10.2020 23:00:00 9,6 9,3 3,2 14,5 14,8 6 3 9 5 SE 1023,4 0,4 0 0,0
30.10.2020 22:00:00 10,2 9,9 3,4 14,5 14,8 0 0 11 6 N 1023,9 0,3 0 0,0
30.10.2020 21:00:00 10,8 10,2 3,9 14,5 14,8 7 4 13 7 SE 1023,8 10 0 0,0
30.10.2020 20:00:00 11,4 10,5 5,4 14,5 14,8 10 6 16 9 SSE 1023,8 20 0 0,0
30.10.2020 19:00:00 11,5 10,1 5,7 14,5 14,8 5 3 8 4 S 1024,1 32 0 0,0
30.10.2020 18:00:00 14,4 10,2 10,3 14,4 14,8 8 5 14 8 SSW 1023,8 19 28 0,0
30.10.2020 17:00:00 17,1 10,7 16,6 14,4 14,8 7 4 16 9 SSW 1024,0 53 36 0,0
30.10.2020 16:00:00 16,7 11,4 17,5 14,3 14,8 9 5 21 11 SSW 1024,1 40 10 0,0
30.10.2020 15:00:00 16,9 10,3 17,9 14,3 14,8 11 6 27 15 WSW 1024,3 37 4 0,0
30.10.2020 14:00:00 17,0 11,0 17,0 14,2 14,8 16 9 29 16 SW 1024,6 51 0 0,0
30.10.2020 13:00:00 16,8 11,3 17,5 14,2 14,8 16 9 34 18 SW 1024,8 49 0 0,0
30.10.2020 12:00:00 17,0 11,5 18,5 14,2 14,8 16 9 32 17 SW 1025,1 40 13 0,0
30.10.2020 11:00:00 16,3 12,6 16,9 14,2 14,8 16 8 26 14 SSW 1024,9 39 8 0,0
30.10.2020 10:00:00 15,5 12,3 15,1 14,1 14,8 13 7 24 13 SSW 1024,6 47 11 0,0
30.10.2020 09:00:00 14,6 12,1 13,9 14,2 14,8 12 6 21 12 SSW 1024,4 43 0 0,0
30.10.2020 08:00:00 14,5 12,2 13,8 14,1 14,8 11 6 22 12 SSW 1024,1 43 0 0,0
30.10.2020 07:00:00 14,5 12,4 13,9 14,1 14,8 11 6 21 12 SSW 1024,0 42 0 0,0
30.10.2020 06:00:00 14,4 12,9 13,9 14,1 14,8 10 6 27 14 SW 1024,0 34 0 0,0
30.10.2020 05:00:00 14,4 12,9 14,0 14,1 14,8 12 6 26 14 SW 1023,8 32 0 0,0
30.10.2020 04:00:00 14,6 13,0 14,0 14,2 14,8 14 7 27 14 SW 1023,7 30 0 0,0
30.10.2020 03:00:00 14,7 13,1 14,2 14,1 14,8 13 7 23 12 SSW 1023,8 29 0 0,0
30.10.2020 02:00:00 14,7 13,4 14,1 14,1 14,8 13 7 27 14 SW 1023,8 20 0 0,0
30.10.2020 01:00:00 14,6 13,3 14,1 14,1 14,8 11 6 21 11 SSW 1023,9 19 0 0,0
30.10.2020 00:00:00 14,6 13,3 14,0 14,1 14,8 12 7 21 11 SW 1024,1 18 0 0,0
29.10.2020 23:00:00 14,4 13,3 13,3 14,1 14,8 10 6 23 12 SSW 1023,9 15 0 0,0
29.10.2020 22:00:00 14,2 13,2 13,3 14,1 14,8 14 8 24 13 SSW 1023,6 14 0 0,0
29.10.2020 21:00:00 14,5 13,4 13,7 14,1 14,8 13 7 29 15 SSW 1023,7 14 0 0,0
29.10.2020 20:00:00 14,7 13,2 13,9 14,0 14,8 15 8 32 17 SW 1023,4 16 0 0,0
29.10.2020 19:00:00 15,3 13,5 14,8 13,9 14,8 17 9 34 18 SW 1023,2 18 0 0,0
29.10.2020 18:00:00 15,5 13,3 15,1 13,9 14,8 16 9 37 20 SW 1022,9 20 0 0,0
29.10.2020 17:00:00 15,9 13,0 16,0 13,9 14,8 17 9 40 22 WSW 1022,5 35 2 0,0
29.10.2020 16:00:00 16,3 13,2 16,6 13,8 14,8 21 11 44 24 WSW 1022,4 35 4 0,0
29.10.2020 15:00:00 16,8 12,7 15,2 13,7 14,8 21 12 41 22 WSW 1022,5 20 46 0,0
29.10.2020 14:00:00 14,8 12,8 14,3 13,6 14,8 22 12 49 26 W 1022,9 25 20 0,0
29.10.2020 13:00:00 16,5 12,6 17,0 13,6 14,8 26 14 41 22 WSW 1023,0 20 8 0,0
29.10.2020 12:00:00 16,0 12,7 15,7 13,6 14,8 21 12 36 20 WSW 1022,9 30 14 0,0
29.10.2020 11:00:00 16,1 13,8 14,7 13,6 14,8 19 11 37 20 WSW 1022,8 20 7 0,0
29.10.2020 10:00:00 14,7 13,1 13,9 13,6 14,9 14 7 26 14 SW 1022,5 20 0 0,0
29.10.2020 09:00:00 13,8 12,7 12,7 13,7 14,7 11 6 22 12 SW 1022,1 19 0 0,0
29.10.2020 08:00:00 13,2 12,3 12,0 13,7 14,7 7 4 18 10 SW 1021,1 3,5 0 0,0
29.10.2020 07:00:00 12,9 11,8 12,0 13,6 14,8 9 5 15 8 SSW 1021,3 8 0 0,0
29.10.2020 06:00:00 12,9 11,6 12,1 13,6 14,8 8 4 17 9 SW 1021,0 42 0 0,0
29.10.2020 05:00:00 12,9 11,5 11,6 13,6 14,9 10 5 19 10 SW 1019,9 20 0 0,0
29.10.2020 04:00:00 12,4 11,1 11,3 13,6 14,8 10 6 19 10 SW 1019,5 17 0 0,0
29.10.2020 03:00:00 13,3 11,5 12,5 13,6 14,8 12 6 23 12 WSW 1019,5 19 0 0,0
29.10.2020 02:00:00 13,6 11,3 12,7 13,6 14,9 14 8 27 14 WSW 1019,5 19 0 0,0
29.10.2020 01:00:00 13,5 11,2 12,5 13,6 14,9 16 9 29 15 WSW 1019,1 20 0 0,0
29.10.2020 00:00:00 13,1 11,5 12,2 13,6 14,9 16 8 33 18 WSW 1018,4 19 0 0,0
28.10.2020 23:00:00 13,6 10,6 12,5 13,6 14,9 21 11 34 19 WSW 1018,3 33 0 0,0
28.10.2020 22:00:00 13,6 10,9 12,0 13,6 14,9 16 9 36 19 WSW 1017,5 17 0 0,0
28.10.2020 21:00:00 13,3 11,4 11,8 13,6 14,9 17 9 41 22 WSW 1017,0 17 0 0,0
28.10.2020 20:00:00 13,8 11,5 12,4 13,6 14,9 20 11 40 22 WSW 1016,4 16 0 0,0
28.10.2020 19:00:00 14,0 10,8 12,8 13,5 14,9 19 10 42 23 WSW 1015,3 18 0 0,0
28.10.2020 18:00:00 14,1 11,3 13,0 13,5 14,9 19 11 41 22 WSW 1015,0 17 0 0,0
28.10.2020 17:00:00 14,3 10,5 13,9 13,5 14,9 23 13 50 27 WSW 1014,8 20 0 0,0
28.10.2020 16:00:00 14,8 10,8 14,9 13,4 14,9 26 14 49 26 WSW 1014,6 30 0 0,0
28.10.2020 15:00:00 14,7 10,7 15,2 13,4 14,9 21 12 59 32 SW 1014,1 20 0 0,0
28.10.2020 14:00:00 15,0 11,4 15,3 13,3 14,9 27 14 49 26 SW 1013,9 19 0 0,0
28.10.2020 13:00:00 14,7 10,7 15,3 13,3 14,9 24 13 49 27 SW 1014,1 35 1 0,0
28.10.2020 12:00:00 14,5 10,3 14,3 13,3 14,9 24 13 47 26 SW 1014,2 33 0 0,0
28.10.2020 11:00:00 14,1 11,1 13,9 13,3 14,9 18 10 40 21 SW 1014,0 20 15 0,0
28.10.2020 10:00:00 12,9 10,3 11,6 13,4 15,0 17 9 28 15 SSW 1013,5 47 15 0,0
28.10.2020 09:00:00 12,3 9,7 10,7 13,4 15,0 19 10 33 18 SW 1013,1 38 1 0,0
28.10.2020 08:00:00 11,3 9,2 9,0 13,4 15,0 14 8 22 12 S 1012,3 33 0 0,0
28.10.2020 07:00:00 11,3 8,3 9,1 13,5 15,0 13 7 27 15 SW 1012,0 45 0 0,0
28.10.2020 06:00:00 10,5 9,1 8,1 13,5 15,0 14 7 16 8 SSW 1011,8 30 0 0,0
28.10.2020 05:00:00 10,5 8,9 8,3 13,6 15,0 12 6 23 12 SSW 1011,4 35 0 0,0
28.10.2020 04:00:00 10,8 9,2 8,2 13,6 15,0 11 6 17 9 S 1010,9 19 0 0,0
28.10.2020 03:00:00 10,3 8,6 8,0 13,6 15,0 10 6 23 12 SW 1011,1 20 0 0,0
28.10.2020 02:00:00 11,1 9,7 8,8 13,6 15,0 10 5 22 12 SSW 1010,2 18 0 0,0
28.10.2020 01:00:00 11,9 9,8 9,7 13,6 15,0 14 7 26 14 WSW 1010,3 19 0 0,0
28.10.2020 00:00:00 12,6 10,7 10,7 13,6 15,0 16 9 31 17 W 1009,8 18 0 0,0
27.10.2020 23:00:00 12,9 11,3 11,3 13,6 15,0 16 9 26 14 SW 1008,9 19 0 0,0
27.10.2020 22:00:00 13,3 11,9 11,8 13,5 15,0 16 8 29 15 WSW 1008,0 17 0 0,0
27.10.2020 21:00:00 14,1 13,0 12,9 13,5 15,0 18 10 43 23 WSW 1007,5 17 0 0,0
27.10.2020 20:00:00 14,7 13,9 14,0 13,4 15,0 14 7 29 16 SW 1006,7 12 0 0,0
27.10.2020 19:00:00 14,7 13,7 14,0 13,4 15,0 14 7 28 15 WSW 1006,2 15 0 0,0
27.10.2020 18:00:00 15,0 13,9 14,3 13,4 15,0 19 11 37 20 WSW 1005,4 17 0 0,0
27.10.2020 17:00:00 14,8 13,8 14,6 13,3 15,0 24 13 53 28 WSW 1004,9 15 0 0,0
27.10.2020 16:00:00 15,4 14,8 15,1 13,2 15,0 29 16 58 32 WSW 1004,6 4,8 0 0,0
27.10.2020 15:00:00 15,3 14,7 15,2 13,2 15,0 31 17 61 33 WSW 1004,5 2,8 0 0,2
27.10.2020 14:00:00 15,2 14,7 15,1 13,2 15,1 26 14 48 26 SW 1004,7 1,9 0 1,0
27.10.2020 13:00:00 14,7 14,4 14,1 13,1 15,0 22 12 44 24 SW 1005,2 1,8 0 2,0
27.10.2020 12:00:00 13,7 13,4 12,9 13,1 15,0 26 14 40 21 S 1006,0 2,1 0 1,8
27.10.2020 11:00:00 12,4 11,9 11,4 13,1 15,1 21 11 39 21 S 1006,6 3,4 0 0,6
27.10.2020 10:00:00 11,3 10,7 10,8 13,2 15,1 22 12 33 18 S 1007,3 5 0 0,0
27.10.2020 09:00:00 10,8 10,2 10,3 13,2 15,1 18 10 26 14 S 1007,7 46 0 0,0
27.10.2020 08:00:00 10,6 10,0 10,2 13,2 15,1 14 8 21 11 S 1008,2 8 0 0,0
27.10.2020 07:00:00 10,6 10,1 9,5 13,3 15,1 12 6 19 10 SSW 1008,7 8 0 0,2
27.10.2020 06:00:00 9,9 9,4 9,0 13,3 15,1 11 6 20 11 SSW 1009,0 2,7 0 0,6
27.10.2020 05:00:00 9,2 8,7 8,1 13,3 15,1 11 6 13 7 S 1008,9 18 0 0,0
27.10.2020 04:00:00 8,9 8,3 8,0 13,4 15,1 8 5 13 7 S 1009,3 18 0 0,0
27.10.2020 03:00:00 9,0 8,5 7,6 13,4 15,1 10 5 11 6 S 1010,1 17 0 0,8
27.10.2020 02:00:00 8,7 8,2 5,9 13,5 15,1 9 5 16 9 W 1010,5 11 0 0,0
27.10.2020 01:00:00 8,2 7,8 4,0 13,5 15,1 9 5 19 10 SSW 1010,6 20 0 0,2
27.10.2020 00:00:00 7,8 7,0 3,6 13,6 15,1 9 5 16 8 S 1010,8 1,0 0 0,0
26.10.2020 23:00:00 8,9 7,7 6,2 13,6 15,1 10 6 21 12 WSW 1010,7 38 0 0,4
26.10.2020 22:00:00 8,2 7,3 4,7 13,7 15,1 10 5 18 10 WSW 1010,6 7 0 0,2
26.10.2020 21:00:00 8,2 6,8 5,5 13,7 15,1 11 6 18 10 WSW 1010,1 34 0 0,0
26.10.2020 20:00:00 9,4 7,7 7,2 13,7 15,1 12 7 44 24 W 1009,9 43 0 0,8
26.10.2020 19:00:00 10,3 8,1 8,4 13,6 15,1 13 7 28 15 W 1009,3 31 0 0,0
26.10.2020 18:00:00 11,4 8,3 10,1 13,6 15,1 16 9 39 21 WSW 1008,7 36 17 0,0
26.10.2020 17:00:00 12,7 8,2 12,2 13,6 15,1 24 13 42 23 W 1008,3 32 38 0,0
26.10.2020 16:00:00 14,0 7,5 15,5 13,5 15,1 27 14 52 28 W 1008,1 20 56 0,0
26.10.2020 15:00:00 14,1 8,3 13,1 13,5 15,1 28 15 58 32 W 1007,8 19 38 0,0
26.10.2020 14:00:00 13,5 8,8 10,7 13,4 15,1 28 15 47 26 WSW 1007,8 33 35 0,0
26.10.2020 13:00:00 12,9 9,7 10,1 13,4 15,1 26 14 55 30 W 1008,3 8 30 0,4
26.10.2020 12:00:00 13,5 9,5 15,5 13,4 15,1 14 8 27 14 SW 1008,2 20 52 0,0
26.10.2020 11:00:00 11,7 9,1 9,3 13,5 15,1 13 7 21 12 SSW 1008,1 34 27 0,0
26.10.2020 10:00:00 9,5 7,4 7,8 13,6 15,1 11 6 26 14 SW 1008,1 57 11 0,6
26.10.2020 09:00:00 8,2 7,3 6,5 13,7 15,1 13 7 31 17 SW 1008,0 52 0 0,6
26.10.2020 08:00:00 7,3 6,7 1,8 13,8 15,1 10 5 31 17 W 1007,2 20 0 0,0
26.10.2020 07:00:00 7,3 7,0 1,5 13,8 15,1 10 5 17 9 SW 1006,2 44 0 0,0
26.10.2020 06:00:00 7,1 6,4 1,0 13,9 15,1 13 7 21 11 SW 1005,7 2,4 0 0,0
26.10.2020 05:00:00 6,6 5,9 2,3 14,1 15,2 10 6 21 11 WSW 1005,1 48 0 0,0
26.10.2020 04:00:00 6,7 6,3 1,9 14,1 15,1 9 5 23 12 SSW 1004,8 28 0 0,0
26.10.2020 03:00:00 6,6 5,7 2,6 14,2 15,1 15 8 18 10 SSW 1005,0 25 0 0,0
26.10.2020 02:00:00 7,6 6,7 3,5 14,3 15,1 11 6 27 14 S 1005,1 43 0 0,2
26.10.2020 01:00:00 7,0 5,9 2,0 14,3 15,1 2 1 22 12 NNW 1005,2 39 0 0,0
26.10.2020 00:00:00 7,4 6,2 3,6 14,4 15,1 10 6 16 9 SSW 1005,0 15 0 0,0
25.10.2020 23:00:00 8,4 7,3 6,2 14,4 15,1 11 6 20 11 SSW 1005,1 15 0 0,0

tt = Température de l'air
td = dewpoint
tt 5cm = Température de l'air 5cm
tt -20cm = Température de l'air -20cm
tt -100cm = Température de l'air -100cm
ff = Vitesse du vent
fx = gusts
dd = Direction du vent
ppp = reduced air pressure
vv = visibility
sd = Ensoleillement
rr = Quantités de précipitations

stations d'obs. à proximité